Regional Weather Roundup
Issued by NWS

Home | Current Version | Previous Version | Graphics & Text | Print | Product List | Glossary On
Versions: 1 2 3 4 5 6 7 8 9 10 11 12 13 14 15 16 17 18 19 20 21 22 23 24 25 26 27 28 29 30 31 32 33 34 35 36 37 38 39 40 41 42 43 44 45 46 47 48 49 50
000
ASUS43 KDMX 020607
RWRIA

WEATHER ROUNDUP FOR IOWA
NATIONAL WEATHER SERVICE DES MOINES IA
100 AM CDT THU JUL 02 2015

NOTE: "FAIR" INDICATES FEW OR NO CLOUDS BELOW 12,000 FEET WITH NO
SIGNIFICANT WEATHER AND/OR OBSTRUCTIONS TO VISIBILITY.

* - THESE STATIONS ARE NOT NWS STATIONS...THUS NOT UNDER NWS
QUALITY CONTROL.  THEY ALSO DO NOT REPORT WEATHER SUCH
AS PRECIPITATION OR FOG.

IAZ001>003-012>014-020>022-031>034-043>046-020700-
   NORTHWEST IOWA

CITY           SKY/WX    TMP DP  RH WIND       PRES   REMARKS
CARROLL *      CLOUDY    59  55  88 E6        29.98S
CHEROKEE *     CLEAR     58  56  94 CALM      29.99S
DENISON *      MOCLDY    61  55  82 E8        29.95S
LE MARS *      CLEAR     63  55  77 E9        29.98S
ORANGE CITY *  CLEAR     57  55  94 E8        29.99S
SHELDON *      CLOUDY    57  57 100 E6        29.99S
SIOUX CITY     PTCLDY    64  56  75 E8        29.96S
6HR MIN TEMP:  64; 6HR MAX TEMP:  75;

SPENCER        CLEAR     56  52  86 E6        30.01S
6HR MIN TEMP:  56; 6HR MAX TEMP:  72;

STORM LAKE *   CLEAR     57  55  94 E9        30.00R
$$

IAZ055>058-069>071-079>083-090>094-020700-
   SOUTHWEST IOWA

CITY           SKY/WX    TMP DP  RH WIND       PRES   REMARKS
ATLANTIC *     MOCLDY    64  59  82 NE6       29.95S
AUDUBON *      CLEAR     61  57  88 NE6       29.97S
CLARINDA *     CLOUDY    70  64  83 NE6       29.93S
COUNCIL BLFS * CLOUDY    68  63  83 E12       29.93S
CRESTON *      CLEAR     64  59  82 E9        29.94S
HARLAN  *      PTCLDY    63  63 100 NE6       29.98F
LAMONI         CLOUDY    67  61  81 NE6       29.93R
6HR MIN TEMP:  67; 6HR MAX TEMP:  77;

RED OAK *      CLOUDY    68  63  83 E9        29.93S
SHENANDOAH *     N/A     70  64  83 NE9       29.92S
$$

IAZ047>049-059>061-072>074-084-020700-
   CENTRAL IOWA

CITY           SKY/WX    TMP DP  RH WIND       PRES   REMARKS
AMES           CLEAR     59  54  83 MISG      29.98R
6HR MIN TEMP:  59; 6HR MAX TEMP:  70;

ANKENY *       CLEAR     59  57  94 NE6       29.96S
CHARITON *     CLOUDY    63  61  94 NE7       29.93F
DES MOINES     CLEAR     63  56  78 E10       29.95S
6HR MIN TEMP:  63; 6HR MAX TEMP:  73;

GRINNELL*      CLEAR     58  55  89 NE8       29.97F
KNOXVILLE *    CLEAR     63  59  88 E8        29.94R
MARSHALLTOWN   CLEAR     57  53  86 E8        29.97S
6HR MIN TEMP:  57; 6HR MAX TEMP:  67;

PELLA *        CLEAR     62  60  94 E5        29.96R
PERRY *          N/A     61  55  82 E7        29.98R
$$

IAZ004>006-015-016-023>025-035-036-020700-
   NORTH CENTRAL IOWA

CITY           SKY/WX    TMP DP  RH WIND       PRES   REMARKS
ALGONA *       CLOUDY    55  54  94 NE5       30.02R
CLARION *      PTCLDY    55  52  88 CALM      30.00R
ESTHERVILLE    CLEAR     51  50  96 E6        30.01S
6HR MIN TEMP:  51; 6HR MAX TEMP:  66;

FORT DODGE *   CLEAR     55  52  88 NE6       30.00S
MASON CITY     CLEAR     52  49  89 E3        30.02S
6HR MIN TEMP:  50; 6HR MAX TEMP:  65;

FOREST CITY *  CLEAR     54  50  87 CALM      30.01S
IOWA FALLS *     N/A     55  54  94 E6        30.00S
$$

IAZ007>011-017>019-026>030-037>042-050>054-066-020700-
   NORTHEAST IOWA

CITY           SKY/WX    TMP DP  RH WIND       PRES   REMARKS
CEDAR RAPIDS   PTCLDY    59  54  83 NE8       29.97F
6HR MIN TEMP:  59; 6HR MAX TEMP:  67; 6HR PCP: TRACE;

CHARLES CITY * CLEAR     54  54 100 NE6       30.01S
CLINTON *      MOCLDY    57  54  88 E7        30.02R
DECORAH *        N/A    N/A N/A N/A MISG        N/A
DUBUQUE        CLEAR     57  51  80 E7        29.99F
6HR MIN TEMP:  56; 6HR MAX TEMP:  64;

MONTICELLO *   CLEAR     55 N/A N/A CALM      29.99S
OELWEIN *      CLEAR    N/A N/A N/A MISG        N/A
WATERLOO       CLEAR     55  53  93 NE5       29.98F
6HR MIN TEMP:  55; 6HR MAX TEMP:  64;

$$

IAZ064-065-067-068-078-020700-
   EAST CENTRAL IOWA

CITY           SKY/WX    TMP DP  RH WIND       PRES   REMARKS
DAVENPORT      CLOUDY    62  55  77 E9        29.98S
6HR MIN TEMP:  62; 6HR MAX TEMP:  68;

IOWA CITY      MOCLDY    63  55  75 NE7       29.98S
6HR MIN TEMP:  62; 6HR MAX TEMP:  71;

MT. PLEASANT * CLOUDY    67  55  66 NE6       29.95S
MUSCATINE *    CLOUDY    64  55  72 NE7       29.96S
QUAD CITIES    CLOUDY    65  56  72 E13       29.97S
6HR MIN TEMP:  65; 6HR MAX TEMP:  72;

$$

IAZ062-063-075>077-085>089-095>099-020700-
   SOUTHEAST IOWA

CITY           SKY/WX    TMP DP  RH WIND       PRES   REMARKS
BURLINGTON     CLOUDY    67  59  75 NE10      29.94R
6HR MIN TEMP:  67; 6HR MAX TEMP:  72; 6HR PCP: TRACE;

FAIRFIELD *    CLOUDY    64  57  77 NE8       29.95S
FORT MADISON * CLOUDY    66  61  82 NE8       29.95R
KEOKUK *       CLOUDY    68  63  83 NE8G14    29.92R
OSKALOOSA *      N/A     62  58  87 E7        29.94F
CENTERVILLE *  CLEAR     64  61  88 E6        29.95S
OTTUMWA        PTCLDY    64  59  83 E8        29.92F
6HR MIN TEMP:  64; 6HR MAX TEMP:  71;

WASHINGTON *   CLOUDY    64  57  77 NE7       29.97F
$$

ABBREVIATIONS USED IN REMARKS
   TC - TEMPERATURES IN CELSIUS
  WCI - WIND CHILL INDEX
   HX - HEAT INDEX
  VSB - VISIBILITY
$$




USA.gov is the U.S. government's official web portal to all federal, state and local government web resources and services.